Location: Observatoire
(46.1952°N, 5.3391°E)
Time: 19:47:53
(UTC+01:00)

Explorer 7 - Pass Details

Date: 25 February 2026
Orbit: 430 x 541 km, 50.2° (Epoch: 10 March)

Event Time Altitude Azimuth Distance (km) Brightness Sun altitude
Rises 17:45:13 0° 293° (WNW) 2,464 11.0 4.8°
Reaches altitude 10° 17:47:19 10° 292° (WNW) 1,606 10.1 4.5°
Maximum altitude 17:50:56 79° 207° (SSW) 486 6.8 3.9°
Drops below altitude 10° 17:54:42 10° 120° (ESE) 1,667 8.9 3.2°
Sets 17:56:55 0° 119° (ESE) 2,567 9.8 2.9°
